Location: Hawkwell
(51.5833°N, 0.6667°E)
Time: 22:36:34
(UTC+00:00)

Daily predictions for brighter satellites

Satellite Brightness Start Highest point End
(mag) Time Altitude Azimuth Time Altitude Azimuth Time Altitude Azimuth
Cosmos 2279 Rocket 4.5 16:18:53 10° SSE 16:24:37 41° E 16:30:24 10° NNE
Cosmos 1570 Rocket 4.0 16:20:07 10° NNW 16:25:29 71° ENE 16:30:47 10° SSE
Cosmos 1092 Rocket 4.0 16:20:10 10° N 16:26:22 85° E 16:32:31 10° S
Cosmos 836 Rocket 4.5 16:23:31 10° NNW 16:28:46 69° ENE 16:34:00 10° SSE
SMAP 3.5 16:27:10 10° SE 16:31:29 39° ENE 16:35:49 10° N
Cosmos 1656 4.3 16:26:39 10° S 16:31:48 39° ESE 16:37:02 10° NE
Cosmos 1867 3.9 16:29:20 10° NW 16:34:35 45° NE 16:39:48 10° ESE
NOSS 2-2 (C) 2.8 16:31:53 10° SSW 16:35:04 62° SE 16:38:02 10° NE
Cosmos 2228 3.0 16:31:31 10° S 16:35:41 59° E 16:39:52 10° NNE
YAOGAN 1 4.3 16:34:01 10° ENE 16:35:43 12° NE 16:37:26 10° NNE
Landsat 7 4.4 16:32:47 10° SE 16:36:59 35° ENE 16:41:13 10° N
Cosmos 2297 Rocket 2.2 16:33:13 10° NNW 16:38:52 61° NE 16:44:27 10° SE
USA 290 2.7 16:36:00 10° NNW 16:39:06 38° ENE 16:42:10 10° SE
Cosmos 773 Rocket 4.0 16:37:05 10° NNW 16:42:18 71° ENE 16:47:32 10° SSE
USA 215 3.5 16:36:00 10° ENE 16:42:24 58° N 16:48:48 10° W
Cosmos 2034 Rocket 4.5 16:37:28 10° SSW 16:43:46 67° WNW 16:50:08 10° N
ATLAS CENTAUR R/B 0.7 16:42:36 10° NW 16:45:53 83° SW 16:49:03 10° SE
Cosmos 1782 3.1 16:42:46 10° SSE 16:46:08 38° E 16:49:31 10° NNE
CZ-4C R/B 2.9 16:39:56 10° NW 16:46:28 67° NE 16:54:45 10° ESE
JB-3 4.4 16:43:35 10° N 16:47:15 72° WNW 16:50:52 10° SSW
Cosmos 1607 3.9 16:41:42 10° NW 16:47:57 74° NE 16:54:13 10° SE
Cosmos 1733 1.2 16:47:33 10° N 16:49:08 44° ENE 16:50:40 10° SSE
CZ-2D R/B 3.5 16:49:55 10° SE 16:52:43 30° ENE 16:55:33 10° N
Lacrosse 4 Rocket 2.2 16:51:01 10° WSW 16:54:55 45° NW 16:58:48 10° NNE
Cosmos 2219 4.3 16:50:35 10° NNW 16:55:10 24° NE 16:59:37 11° E
Cosmos 1825 Rocket 4.4 16:52:12 10° N 16:55:57 27° ENE 16:59:40 10° SE
ARIANE 5 R/B 2.6 16:52:37 10° SE 16:57:31 54° ENE 17:02:32 10° N
Meteor 1-27 4.4 16:51:55 10° SSW 16:57:43 82° WNW 17:03:32 10° NNE
Iridium 51 3.9 16:54:46 10° S 16:57:54 75° W 17:01:07 10° N
Cosmos 1758 Rocket 3.4 16:54:04 10° N 16:58:24 78° ENE 17:02:41 10° SSE
Cosmos 2266 Rocket 4.1 16:52:23 10° N 16:58:25 51° ENE 17:04:19 10° SSE
Cosmos 1315 Rocket 3.2 16:55:23 10° SSW 16:59:10 61° WNW 17:02:59 10° N
Cosmos 2208 Rocket 4.1 16:56:49 10° NNW 17:02:00 83° WSW 17:07:11 10° SSE
Cosmos 2098 Rocket 3.2 16:58:33 10° S 17:02:33 54° E 17:07:19 10° NNE
Cosmos 2151 3.0 16:59:39 10° N 17:03:44 54° ENE 17:07:49 10° SSE
Cosmos 1743 2.2 17:01:13 10° N 17:04:28 64° ENE 17:07:41 10° SSE
Cosmos 1980 Rocket 3.8 17:04:53 10° ESE 17:07:25 13° E 17:08:01 13° E
SPOT 1/Viking Rocket 4.1 17:02:54 10° SE 17:07:34 35° ENE 17:12:16 10° N
Cosmos 1844 Rocket 4.3 17:06:02 10° N 17:09:16 15° NNE 17:10:59 14° NE
SL-08 ROCKET BODY 4.4 17:06:02 10° N 17:12:00 87° W 17:18:02 10° S
SL-16 R/B 2.7 17:09:15 10° NNE 17:15:30 79° WNW 17:21:42 10° SSW
Cosmos 2263 Rocket 2.7 17:11:49 10° NNW 17:17:05 37° NE 17:22:21 10° ESE
NOSS 3-2 (A) 3.2 17:13:54 10° SW 17:19:02 90° NW 17:24:05 16° NE
NOSS 3-2 (C) 3.6 17:14:21 10° SSW 17:19:08 44° ESE 17:23:02 19° ENE
IGS 5A 4.4 17:16:46 10° S 17:20:36 48° W 17:24:29 10° NNW
CORIOLIS 4.3 17:15:18 10° SSE 17:20:39 79° WSW 17:26:02 10° NNW
Cosmos 1626 Rocket 4.3 17:17:25 10° NNW 17:21:40 54° W 17:25:51 10° S
Cosmos 783 Rocket 4.4 17:17:46 10° NNW 17:23:06 74° ENE 17:28:23 10° SSE
GEOS 3 Rocket 3.7 17:19:36 16° NE 17:24:00 77° SE 17:29:22 10° SW
MOS 1 Rocket 3.4 17:19:52 10° SSE 17:24:43 65° ENE 17:29:52 10° N
BREEZE M DEB (TANK) 3.5 17:23:08 10° SSW 17:24:52 18° SSE 17:25:20 17° SE
Cosmos 1076 Rocket 4.1 17:21:28 10° N 17:25:24 33° ENE 17:29:18 10° SE
AQUARIUS 4.0 17:23:19 10° SSE 17:27:42 72° ENE 17:32:07 10° N
Cosmos 1933 3.6 17:25:05 10° SSE 17:28:41 41° E 17:30:45 22° NE
Cosmos 2084 Rocket 3.5 17:25:39 10° NW 17:29:52 78° SW 17:34:04 10° SE
Cosmos 2227 Rocket 2.1 17:24:25 10° NNW 17:30:04 66° NE 17:35:41 10° SE
SJ-12 3.6 17:26:49 10° SSE 17:30:34 88° E 17:34:23 10° NNW
Cosmos 1538 Rocket 4.4 17:26:04 10° NNW 17:31:01 39° NE 17:35:59 10° SE
BlueWalker 3 4.4 17:28:33 10° W 17:31:20 21° SW 17:34:07 10° S
Cosmos 1606 Rocket 3.9 17:28:00 10° SSE 17:32:11 44° E 17:35:23 16° NNE
Meteor 1-28 Rocket 3.9 17:28:57 10° N 17:32:11 46° WNW 17:35:24 10° SW
Cosmos 1900 4.3 17:27:27 10° NW 17:32:33 88° SW 17:37:32 10° SE
Cosmos 2360 4.2 17:27:01 10° SSW 17:32:43 78° ESE 17:37:26 16° NNE
Thor Agena Rocket 4.4 17:28:54 10° S 17:34:00 54° WSW 17:39:05 10° NNW
Cosmos 2369 Rocket 4.1 17:31:18 10° W 17:35:32 21° NW 17:39:47 10° NNE
PSLV R/B 4.0 17:36:04 25° ESE 17:37:27 32° ENE 17:41:05 10° N
CZ-2D R/B 3.7 17:34:11 10° SE 17:38:11 44° ENE 17:42:08 10° N
COSMO-SKYMED 1 3.8 17:39:14 22° ESE 17:39:14 22° ESE 17:41:35 10° SSE
NOSS 2-2 (D) 3.0 17:35:46 10° SW 17:38:57 60° NW 17:40:03 34° NNE
Cosmos 1544 Rocket 4.3 17:36:59 10° SSW 17:41:19 55° WNW 17:45:42 10° N
SL-19 R/B 4.5 17:36:55 10° SE 17:42:01 45° ENE 17:47:25 10° N
Resurs 1-3 3.9 17:38:12 10° SE 17:42:13 40° ENE 17:46:15 10° N
BREEZE-M DEB (TANK) 3.6 17:39:17 10° W 17:42:26 71° S 17:48:33 19° ESE
Cosmos 1503 Rocket 3.9 17:37:15 10° SSW 17:42:28 70° ESE 17:46:10 19° NNE
IRS-1C 4.5 17:40:31 10° S 17:45:48 67° WSW 17:51:09 10° NNW
Cosmos 2278 Rocket 4.4 17:45:56 10° NNW 17:46:53 10° N 17:47:50 10° N
Cosmos 1697 Rocket 2.8 17:42:29 10° S 17:47:53 52° ESE 17:50:45 27° NE
Okean 1-7 Rocket 3.7 17:44:22 10° NNW 17:48:47 76° W 17:53:08 10° S
Lacrosse 5 rocket 1.8 17:45:29 10° W 17:49:02 41° NNW 17:49:58 34° NNE
Cosmos 1354 Rocket 4.0 17:45:35 10° S 17:50:44 59° ESE 17:53:34 26° NE
BREEZE-M DEB (TANK) 3.7 17:48:21 10° W 17:51:38 81° N 17:57:03 24° E
Cosmos 1461 2.6 17:49:31 10° SSW 17:53:22 66° SE 17:54:18 47° ENE
NOSS 2-2 (E) 3.1 17:50:41 10° WSW 17:53:50 55° NW 17:54:24 45° N
Spot 4 Rocket 3.9 17:50:58 10° SSE 17:55:59 62° ENE 18:01:03 10° N
IRAS Rocket 4.2 17:51:53 10° SE 17:57:14 57° ENE 18:02:36 10° N
Cosmos 1726 Rocket 3.6 17:52:52 10° S 17:57:26 60° E 17:59:49 27° NNE
Cosmos 1655 Rocket 3.9 17:53:32 10° N 17:59:49 76° ENE 18:06:02 10° SSE
SKYMED 2 3.6 17:59:36 39° NE 18:00:57 56° E 18:05:13 10° S
Cosmos 1777 Rocket 4.1 17:56:19 10° SSW 18:01:35 76° WNW 18:05:19 20° NNE
Gbstr 26 Del rocket 3.7 17:59:00 10° SSW 18:02:32 32° SSE 18:02:38 31° SE
NOAA 15 4.5 18:01:15 10° SSE 18:06:32 77° ENE 18:11:50 10° NNW
Meteor 2-10 4.0 18:01:45 10° N 18:07:01 60° ENE 18:12:27 10° SSE
CENTAUR R/B 3.5 18:02:12 10° W 18:08:07 41° NNW 18:12:28 22° NE
YAOGAN 1 2.3 18:06:36 10° SSE 18:10:51 76° ENE 18:15:07 10° N
Cosmos 2082 3.8 18:10:27 10° NNW 18:16:02 52° NE 18:17:04 46° E
USA 281 4.3 18:17:15 26° NE 18:17:15 26° NE 18:22:09 10° NNW
Cosmos 1867 4.5 18:13:01 10° NW 18:18:16 48° WSW 18:23:28 10° SSE
USA 238 DEB 3.9 18:13:37 10° S 18:19:17 42° ESE 18:19:57 40° ESE
USA 238 3.9 18:13:44 10° S 18:19:24 41° ESE 18:20:02 40° ESE
SJ-7 4.2 18:19:53 71° NNW 18:19:53 71° NNW 18:23:17 10° NNW
Resurs 01 Rocket 3.8 18:25:00 14° N 18:25:00 14° N 18:25:39 10° N
Cosmos 2297 Rocket 4.2 18:17:46 10° NW 18:22:31 28° WSW 18:27:15 10° SSW
Cosmos 1953 Rocket 3.6 18:18:39 10° NNW 18:23:06 78° W 18:27:32 10° S
USA 215 3.3 18:22:49 42° ENE 18:25:02 63° NNE 18:31:29 10° WNW
Aureole 1 Rocket 4.1 18:24:30 10° S 18:27:16 36° SSE 18:27:16 36° SSE
Lacrosse 4 Rocket 3.8 18:31:53 10° NW 18:33:44 13° NNW 18:34:34 12° NNW
CZ-4C R/B 4.0 18:28:13 10° NW 18:34:52 45° WSW 18:42:54 10° S
USA 81 4.0 18:31:25 10° N 18:36:43 81° W 18:41:58 10° S
Cosmos 990 Rocket 4.1 18:33:13 10° SSW 18:38:20 73° WNW 18:39:47 47° N
Cosmos 2219 3.1 18:34:22 10° NNW 18:40:09 85° ENE 18:41:35 53° SE
NOAA 6 4.0 18:36:08 10° SSE 18:41:15 83° WSW 18:46:23 10° NNW
Cosmos 1980 Rocket 2.2 18:44:46 10° SSW 18:49:48 65° SSE 18:49:48 65° SSE
Cosmos 2058 Rocket 4.3 18:49:22 10° SSW 18:51:55 34° SSW 18:51:55 34° SSW
Nadezhda 2 Rocket 4.3 18:47:57 10° N 18:54:07 87° WSW 19:00:13 10° S
Cosmos 1844 Rocket 3.8 18:49:18 10° NNW 18:52:37 31° N 18:52:37 31° N
Cosmos 2263 Rocket 2.9 18:55:43 10° NW 19:01:11 51° WSW 19:04:59 20° S
Cosmos 1553 Rocket 3.8 19:00:52 10° S 19:06:49 84° S 19:06:49 84° S
NOSS 3-2 (C) 3.8 19:04:41 10° WSW 19:09:53 51° NNW 19:10:27 49° NNW
Meteor 2-11 Rocket 4.4 19:04:03 10° NNW 19:09:57 82° NNW 19:09:57 82° NNW
NOSS 3-2 (A) 4.5 19:05:29 10° W 19:10:36 35° NNW 19:11:26 34° N
Cosmos 2227 Rocket 4.2 19:09:06 10° NW 19:13:39 26° WSW 19:18:12 10° SSW
COSMO-SKYMED 1 4.4 19:15:34 26° WSW 19:15:34 26° WSW 19:17:36 10° SW
Lacrosse 5 rocket 4.2 19:23:11 10° WNW 19:23:33 12° WNW 19:23:33 12° WNW
Cosmos 1697 Rocket 3.9 19:26:55 10° WSW 19:32:04 36° NW 19:32:28 36° NW
CENTAUR R/B 4.0 19:54:17 10° WNW 19:59:34 33° N 19:59:34 33° N
USA 215 4.1 20:10:10 45° WNW 20:10:10 45° WNW 20:14:35 10° WNW
